User: anonymous   Login
Location: Cactus School
(34.5700°N, 118.0931°W)
Time: 13:31:35
(UTC-07:00)
Language:

Transit 2A Rocket - Orbit

View from above orbital plane
View from above orbital plane
View from above satellite
View from above satellite

Ground track
Ground track

The orbit data is extracted from the following two-line orbital elements,

1 00047U 60007C   24102.88521358  .00001132  00000-0  27097-3 0  9998
2 00047  66.6671  24.1586 0224022   0.5806 359.5515 14.43437871335794
Epoch (UTC): 11 April 2024 21:14:42
Eccentricity: 0.0224022
inclination: 66.6671°
perigee height: 587 km
apogee height: 907 km
right ascension of ascending node: 24.1586°
argument of perigee: 0.5806°
revolutions per day: 14.43437871
mean anomaly at epoch: 359.5515°
orbit number at epoch: 33579

The dashed part of the orbit path shows where the satellite is in the earth's shadow,  

DLR